Time,TemperatureF,DewpointF,PressureIn,WindDirection,WindDirectionDegrees,WindSpeedMPH,WindSpeedGustMPH,Humidity,HourlyPrecipIn,Conditions,Clouds,dailyrainin,SoftwareType,DateUTC
2013-09-17 00:05:00,50.9,43.0,30.21,South,180,4.5,5.4,74,0.00,,,0.00,meteobridge,2013-09-17 05:05:00,
2013-09-17 00:11:00,51.1,43.2,30.22,SE,135,5.4,5.4,74,0.00,,,0.00,meteobridge,2013-09-17 05:11:00,
2013-09-17 00:16:00,51.1,43.2,30.22,South,180,5.4,6.0,74,0.00,,,0.00,meteobridge,2013-09-17 05:16:00,
2013-09-17 00:22:00,51.1,43.2,30.21,SE,135,4.5,6.0,74,0.00,,,0.00,meteobridge,2013-09-17 05:22:00,
2013-09-17 00:27:00,51.1,43.2,30.21,SE,135,4.5,5.4,74,0.00,,,0.00,meteobridge,2013-09-17 05:27:00,
2013-09-17 00:33:00,51.1,43.2,30.21,SE,135,5.4,5.4,74,0.00,,,0.00,meteobridge,2013-09-17 05:33:00,
2013-09-17 00:39:00,51.1,43.2,30.21,SE,135,5.4,6.9,74,0.00,,,0.00,meteobridge,2013-09-17 05:39:00,
2013-09-17 00:44:00,51.3,43.3,30.21,South,180,5.4,6.0,74,0.00,,,0.00,meteobridge,2013-09-17 05:44:00,
2013-09-17 00:50:00,51.1,43.2,30.21,SW,225,3.8,7.6,74,0.00,,,0.00,meteobridge,2013-09-17 05:50:00,
2013-09-17 00:56:00,51.1,43.2,30.21,South,180,4.5,6.0,74,0.00,,,0.00,meteobridge,2013-09-17 05:56:00,
2013-09-17 01:01:00,50.9,43.3,30.21,SE,135,4.5,4.5,75,0.00,,,0.00,meteobridge,2013-09-17 06:01:00,
2013-09-17 01:07:00,50.7,43.2,30.20,SE,135,4.5,4.5,75,0.00,,,0.00,meteobridge,2013-09-17 06:07:00,
2013-09-17 01:13:00,50.5,43.0,30.21,SSE,158,4.5,5.4,75,0.00,,,0.00,meteobridge,2013-09-17 06:13:00,
2013-09-17 01:18:00,50.4,43.2,30.21,South,180,4.5,5.4,76,0.00,,,0.00,meteobridge,2013-09-17 06:18:00,
2013-09-17 01:24:00,50.2,43.0,30.21,South,180,5.4,5.4,76,0.00,,,0.00,meteobridge,2013-09-17 06:24:00,
2013-09-17 01:29:00,50.0,43.2,30.21,SE,135,4.5,4.5,77,0.00,,,0.00,meteobridge,2013-09-17 06:29:00,
2013-09-17 01:35:00,49.8,43.5,30.21,SSE,158,5.4,5.4,79,0.00,,,0.00,meteobridge,2013-09-17 06:35:00,
2013-09-17 01:41:00,49.8,43.9,30.21,SSE,158,3.8,4.5,80,0.00,,,0.00,meteobridge,2013-09-17 06:41:00,
2013-09-17 01:46:00,49.6,43.7,30.21,South,180,3.1,3.1,80,0.00,,,0.00,meteobridge,2013-09-17 06:46:00,
2013-09-17 01:52:00,49.6,43.7,30.21,SSE,158,3.8,3.8,80,0.00,,,0.00,meteobridge,2013-09-17 06:52:00,
2013-09-17 01:58:00,49.6,44.1,30.21,SSE,158,2.2,3.1,81,0.00,,,0.00,meteobridge,2013-09-17 06:58:00,
2013-09-17 02:03:00,49.5,44.2,30.21,SE,135,2.2,3.1,82,0.00,,,0.00,meteobridge,2013-09-17 07:03:00,
2013-09-17 02:09:00,49.3,44.1,30.21,SSE,158,2.2,3.1,82,0.00,,,0.00,meteobridge,2013-09-17 07:09:00,
2013-09-17 02:15:00,49.3,44.4,30.20,SE,135,3.1,3.1,83,0.00,,,0.00,meteobridge,2013-09-17 07:15:00,
2013-09-17 02:20:00,49.3,44.6,30.20,SE,135,3.1,3.1,84,0.00,,,0.00,meteobridge,2013-09-17 07:20:00,
2013-09-17 02:26:00,49.3,44.6,30.20,SE,135,3.1,3.1,84,0.00,,,0.00,meteobridge,2013-09-17 07:26:00,
2013-09-17 02:32:00,49.3,44.6,30.20,SSE,158,3.1,3.1,84,0.00,,,0.00,meteobridge,2013-09-17 07:32:00,
2013-09-17 02:37:00,48.9,44.2,30.20,South,180,3.1,3.1,84,0.00,,,0.00,meteobridge,2013-09-17 07:37:00,
2013-09-17 02:43:00,48.9,44.6,30.20,SE,135,3.1,3.1,85,0.00,,,0.00,meteobridge,2013-09-17 07:43:00,
2013-09-17 02:48:00,48.6,44.2,30.19,SE,135,2.2,3.1,85,0.00,,,0.00,meteobridge,2013-09-17 07:48:00,
2013-09-17 02:54:00,48.2,43.9,30.19,SE,135,2.2,2.2,85,0.00,,,0.00,meteobridge,2013-09-17 07:54:00,
2013-09-17 03:00:00,48.0,44.1,30.19,South,180,0.7,1.6,86,0.00,,,0.00,meteobridge,2013-09-17 08:00:00,
2013-09-17 03:05:00,47.8,44.2,30.20,South,180,0.0,0.0,87,0.00,,,0.00,meteobridge,2013-09-17 08:05:00,
2013-09-17 03:11:00,47.7,44.1,30.19,South,180,0.0,0.7,87,0.00,,,0.00,meteobridge,2013-09-17 08:11:00,
2013-09-17 03:17:00,47.5,43.9,30.20,SSE,158,0.0,0.0,87,0.00,,,0.00,meteobridge,2013-09-17 08:17:00,
2013-09-17 03:22:00,47.3,43.9,30.19,SE,135,0.0,0.0,88,0.00,,,0.00,meteobridge,2013-09-17 08:22:00,
2013-09-17 03:28:00,47.3,43.9,30.20,SE,135,1.6,1.6,88,0.00,,,0.00,meteobridge,2013-09-17 08:28:00,
2013-09-17 03:34:00,47.5,44.4,30.19,SE,135,0.0,0.0,89,0.00,,,0.00,meteobridge,2013-09-17 08:34:00,
2013-09-17 03:39:00,47.5,44.4,30.19,South,180,0.0,0.0,89,0.00,,,0.00,meteobridge,2013-09-17 08:39:00,
2013-09-17 03:45:00,47.5,44.4,30.19,SE,135,0.0,0.0,89,0.00,,,0.00,meteobridge,2013-09-17 08:45:00,
2013-09-17 03:50:00,47.5,44.8,30.19,SE,135,0.0,1.6,90,0.00,,,0.00,meteobridge,2013-09-17 08:50:00,
2013-09-17 03:56:00,47.7,45.0,30.19,South,180,0.0,0.0,90,0.00,,,0.00,meteobridge,2013-09-17 08:56:00,
2013-09-17 04:02:00,47.7,45.0,30.19,SE,135,0.0,0.0,90,0.00,,,0.00,meteobridge,2013-09-17 09:02:00,
2013-09-17 04:07:00,47.7,45.0,30.19,SE,135,0.0,0.0,90,0.00,,,0.00,meteobridge,2013-09-17 09:07:00,
2013-09-17 04:13:00,47.8,44.8,30.19,SE,135,0.0,0.0,89,0.00,,,0.00,meteobridge,2013-09-17 09:13:00,
2013-09-17 04:19:00,47.8,44.8,30.19,SE,135,0.0,0.0,89,0.00,,,0.00,meteobridge,2013-09-17 09:19:00,
2013-09-17 04:24:00,48.0,44.6,30.19,SE,135,0.0,0.0,88,0.00,,,0.00,meteobridge,2013-09-17 09:24:00,
2013-09-17 04:30:00,48.2,44.6,30.19,SE,135,0.0,0.0,87,0.00,,,0.00,meteobridge,2013-09-17 09:30:00,
2013-09-17 04:36:00,48.6,44.6,30.18,SE,135,0.0,0.0,86,0.00,,,0.00,meteobridge,2013-09-17 09:36:00,
2013-09-17 04:41:00,48.7,44.4,30.19,South,180,0.0,0.0,85,0.00,,,0.00,meteobridge,2013-09-17 09:41:00,
2013-09-17 04:47:00,49.1,44.8,30.18,SE,135,0.0,0.0,85,0.00,,,0.00,meteobridge,2013-09-17 09:47:00,
2013-09-17 04:52:00,49.5,45.1,30.18,ESE,113,0.7,0.7,85,0.00,,,0.00,meteobridge,2013-09-17 09:52:00,
2013-09-17 04:58:00,49.5,44.8,30.18,SE,135,5.4,5.4,84,0.00,,,0.00,meteobridge,2013-09-17 09:58:00,
2013-09-17 05:04:00,49.6,45.0,30.18,SE,135,3.8,6.0,84,0.00,,,0.00,meteobridge,2013-09-17 10:04:00,
2013-09-17 05:09:00,50.0,45.0,30.18,SE,135,6.9,6.9,83,0.00,,,0.00,meteobridge,2013-09-17 10:09:00,
2013-09-17 05:15:00,50.4,45.3,30.18,SE,135,6.0,6.0,83,0.00,,,0.00,meteobridge,2013-09-17 10:15:00,
2013-09-17 05:21:00,50.2,45.1,30.17,SE,135,4.5,6.0,83,0.00,,,0.00,meteobridge,2013-09-17 10:21:00,
2013-09-17 05:26:00,50.2,45.1,30.17,South,180,5.4,5.4,83,0.00,,,0.00,meteobridge,2013-09-17 10:26:00,
2013-09-17 05:32:00,50.4,45.7,30.17,South,180,7.6,7.6,84,0.00,,,0.00,meteobridge,2013-09-17 10:32:00,
2013-09-17 05:38:00,50.5,45.9,30.17,SE,135,5.4,5.4,84,0.00,,,0.00,meteobridge,2013-09-17 10:38:00,
2013-09-17 05:43:00,50.5,45.9,30.17,South,180,4.5,6.0,84,0.00,,,0.00,meteobridge,2013-09-17 10:43:00,
2013-09-17 05:49:00,50.5,45.5,30.17,SSE,158,6.9,9.2,83,0.00,,,0.00,meteobridge,2013-09-17 10:49:00,
2013-09-17 05:54:00,50.5,45.5,30.16,SE,135,6.9,6.9,83,0.00,,,0.00,meteobridge,2013-09-17 10:54:00,
2013-09-17 05:59:00,50.4,45.3,30.16,SE,135,6.0,6.9,83,0.00,,,0.00,meteobridge,2013-09-17 10:59:00,
2013-09-17 06:05:00,50.0,45.0,30.16,SE,135,6.0,6.0,83,0.00,,,0.00,meteobridge,2013-09-17 11:05:00,
2013-09-17 06:11:00,49.8,45.5,30.16,SE,135,6.0,7.6,85,0.00,,,0.00,meteobridge,2013-09-17 11:11:00,
2013-09-17 06:16:00,49.8,45.5,30.16,SE,135,6.9,9.8,85,0.00,,,0.00,meteobridge,2013-09-17 11:16:00,
2013-09-17 06:22:00,50.0,45.3,30.16,SE,135,7.6,9.8,84,0.00,,,0.00,meteobridge,2013-09-17 11:22:00,
2013-09-17 06:28:00,50.0,45.0,30.16,SE,135,6.0,8.3,83,0.00,,,0.00,meteobridge,2013-09-17 11:28:00,
2013-09-17 06:33:00,50.2,45.1,30.16,SE,135,8.3,8.3,83,0.00,,,0.00,meteobridge,2013-09-17 11:33:00,
2013-09-17 06:39:00,50.2,45.1,30.16,SE,135,9.8,11.4,83,0.00,,,0.00,meteobridge,2013-09-17 11:39:00,
2013-09-17 06:45:00,50.4,45.3,30.16,SE,135,9.8,9.8,83,0.00,,,0.00,meteobridge,2013-09-17 11:45:00,
2013-09-17 06:50:00,50.4,45.3,30.16,East,90,8.3,11.4,83,0.00,,,0.00,meteobridge,2013-09-17 11:50:00,
2013-09-17 06:55:00,50.4,45.3,30.16,SE,135,9.8,10.7,83,0.00,,,0.00,meteobridge,2013-09-17 11:55:00,
2013-09-17 07:01:00,50.2,45.1,30.15,SE,135,9.2,9.2,83,0.00,,,0.00,meteobridge,2013-09-17 12:01:00,
2013-09-17 07:06:00,50.4,45.3,30.15,SE,135,11.4,11.4,83,0.00,,,0.00,meteobridge,2013-09-17 12:06:00,
2013-09-17 07:12:00,50.4,45.3,30.16,SE,135,10.7,10.7,83,0.00,,,0.00,meteobridge,2013-09-17 12:12:00,
2013-09-17 07:18:00,50.4,45.3,30.15,SE,135,10.7,10.7,83,0.00,,,0.00,meteobridge,2013-09-17 12:18:00,
2013-09-17 07:23:00,50.2,45.1,30.15,SE,135,10.7,10.7,83,0.00,,,0.00,meteobridge,2013-09-17 12:23:00,
2013-09-17 07:29:00,50.2,45.1,30.15,SE,135,12.1,12.1,83,0.00,,,0.00,meteobridge,2013-09-17 12:29:00,
2013-09-17 07:35:00,50.4,45.3,30.16,SSE,158,9.8,10.7,83,0.00,,,0.00,meteobridge,2013-09-17 12:35:00,
2013-09-17 07:40:00,50.4,45.3,30.15,SE,135,10.7,11.4,83,0.00,,,0.00,meteobridge,2013-09-17 12:40:00,
2013-09-17 07:46:00,50.4,45.3,30.15,SE,135,10.7,13.0,83,0.00,,,0.00,meteobridge,2013-09-17 12:46:00,
2013-09-17 07:51:00,50.4,45.3,30.15,SE,135,9.2,9.2,83,0.00,,,0.00,meteobridge,2013-09-17 12:51:00,
2013-09-17 07:57:00,50.5,45.5,30.15,SE,135,9.2,10.7,83,0.00,,,0.00,meteobridge,2013-09-17 12:57:00,
2013-09-17 08:03:00,50.7,45.7,30.15,SE,135,9.8,13.0,83,0.00,,,0.00,meteobridge,2013-09-17 13:03:00,
2013-09-17 08:08:00,50.9,45.9,30.15,SE,135,8.3,11.4,83,0.00,,,0.00,meteobridge,2013-09-17 13:08:00,
2013-09-17 08:14:00,51.3,46.2,30.15,SE,135,8.3,10.7,83,0.00,,,0.00,meteobridge,2013-09-17 13:14:00,
2013-09-17 08:20:00,51.6,46.6,30.14,SSE,158,8.3,8.3,83,0.00,,,0.00,meteobridge,2013-09-17 13:20:00,
2013-09-17 08:25:00,52.0,46.6,30.15,SE,135,7.6,7.6,82,0.00,,,0.00,meteobridge,2013-09-17 13:25:00,
2013-09-17 08:31:00,52.3,46.9,30.14,SE,135,8.3,9.2,82,0.00,,,0.00,meteobridge,2013-09-17 13:31:00,
2013-09-17 08:37:00,52.5,47.1,30.14,South,180,12.1,12.1,82,0.00,,,0.00,meteobridge,2013-09-17 13:37:00,
2013-09-17 08:42:00,52.9,47.5,30.14,SSE,158,13.6,13.6,82,0.00,,,0.00,meteobridge,2013-09-17 13:42:00,
2013-09-17 08:48:00,53.2,47.8,30.14,South,180,10.7,11.4,82,0.00,,,0.00,meteobridge,2013-09-17 13:48:00,
2013-09-17 08:54:00,53.6,47.8,30.14,SSE,158,8.3,9.8,81,0.00,,,0.00,meteobridge,2013-09-17 13:54:00,
2013-09-17 08:59:00,54.1,48.0,30.13,SE,135,11.4,11.4,80,0.00,,,0.00,meteobridge,2013-09-17 13:59:00,
2013-09-17 09:05:00,54.3,48.0,30.13,SE,135,10.7,10.7,79,0.00,,,0.00,meteobridge,2013-09-17 14:05:00,
2013-09-17 09:10:00,54.9,48.6,30.14,SE,135,9.8,11.4,79,0.00,,,0.00,meteobridge,2013-09-17 14:10:00,
2013-09-17 09:16:00,55.0,48.4,30.13,South,180,10.7,10.7,78,0.00,,,0.00,meteobridge,2013-09-17 14:16:00,
2013-09-17 09:22:00,55.2,48.6,30.13,SE,135,9.8,10.7,78,0.00,,,0.00,meteobridge,2013-09-17 14:22:00,
2013-09-17 09:27:00,55.8,48.7,30.13,SE,135,9.2,9.2,77,0.00,,,0.00,meteobridge,2013-09-17 14:27:00,
2013-09-17 09:33:00,56.1,48.9,30.13,South,180,9.2,9.8,77,0.00,,,0.00,meteobridge,2013-09-17 14:33:00,
2013-09-17 09:39:00,56.7,49.1,30.14,SE,135,9.8,11.4,76,0.00,,,0.00,meteobridge,2013-09-17 14:39:00,
2013-09-17 09:44:00,57.0,49.5,30.14,South,180,13.6,14.5,76,0.00,,,0.00,meteobridge,2013-09-17 14:44:00,
2013-09-17 09:50:00,57.4,49.5,30.14,SE,135,9.8,9.8,75,0.00,,,0.00,meteobridge,2013-09-17 14:50:00,
2013-09-17 09:56:00,57.4,49.1,30.13,SE,135,17.4,17.4,74,0.00,,,0.00,meteobridge,2013-09-17 14:56:00,
2013-09-17 10:01:00,57.4,49.1,30.13,South,180,13.6,13.6,74,0.00,,,0.00,meteobridge,2013-09-17 15:01:00,
2013-09-17 10:07:00,57.7,49.5,30.13,South,180,10.7,10.7,74,0.00,,,0.00,meteobridge,2013-09-17 15:07:00,
2013-09-17 10:12:00,58.3,50.0,30.13,South,180,8.3,13.0,74,0.00,,,0.00,meteobridge,2013-09-17 15:12:00,
2013-09-17 10:18:00,58.5,50.2,30.12,SSE,158,14.5,14.5,74,0.00,,,0.00,meteobridge,2013-09-17 15:18:00,
2013-09-17 10:24:00,58.8,50.5,30.12,SE,135,13.0,13.0,74,0.00,,,0.00,meteobridge,2013-09-17 15:24:00,
2013-09-17 10:29:00,59.2,50.2,30.11,South,180,11.4,13.6,72,0.00,,,0.00,meteobridge,2013-09-17 15:29:00,
2013-09-17 10:35:00,59.9,50.2,30.11,SSE,158,14.5,17.4,70,0.00,,,0.00,meteobridge,2013-09-17 15:35:00,
2013-09-17 10:41:00,59.9,50.2,30.11,SE,135,13.6,15.9,70,0.00,,,0.00,meteobridge,2013-09-17 15:41:00,
2013-09-17 10:46:00,60.8,50.2,30.11,South,180,9.2,13.6,68,0.00,,,0.00,meteobridge,2013-09-17 15:46:00,
2013-09-17 10:52:00,62.2,50.7,30.11,SE,135,18.3,18.3,66,0.00,,,0.00,meteobridge,2013-09-17 15:52:00,
2013-09-17 10:58:00,62.4,50.9,30.11,South,180,12.1,12.1,66,0.00,,,0.00,meteobridge,2013-09-17 15:58:00,
2013-09-17 11:03:00,63.0,51.1,30.11,SE,135,15.2,15.2,65,0.00,,,0.00,meteobridge,2013-09-17 16:03:00,
2013-09-17 11:09:00,63.0,50.5,30.11,SSE,158,18.3,19.0,64,0.00,,,0.00,meteobridge,2013-09-17 16:09:00,
2013-09-17 11:14:00,63.7,51.3,30.10,SE,135,13.0,13.0,64,0.00,,,0.00,meteobridge,2013-09-17 16:14:00,
2013-09-17 11:20:00,64.0,51.3,30.10,SE,135,12.1,13.6,63,0.00,,,0.00,meteobridge,2013-09-17 16:20:00,
2013-09-17 11:26:00,64.8,51.8,30.09,SSW,203,15.9,18.3,63,0.00,,,0.00,meteobridge,2013-09-17 16:26:00,
2013-09-17 11:31:00,65.3,52.3,30.09,SSE,158,11.4,14.5,63,0.00,,,0.00,meteobridge,2013-09-17 16:31:00,
2013-09-17 11:37:00,65.5,53.1,30.09,SE,135,15.2,15.9,64,0.00,,,0.00,meteobridge,2013-09-17 16:37:00,
2013-09-17 11:43:00,65.3,52.0,30.09,South,180,13.0,16.8,62,0.00,,,0.00,meteobridge,2013-09-17 16:43:00,
2013-09-17 11:48:00,65.8,52.0,30.09,SE,135,16.8,19.7,61,0.00,,,0.00,meteobridge,2013-09-17 16:48:00,
2013-09-17 11:54:00,65.8,52.9,30.09,South,180,14.5,18.3,63,0.00,,,0.00,meteobridge,2013-09-17 16:54:00,
2013-09-17 12:00:00,66.2,52.9,30.09,South,180,13.6,18.3,62,0.00,,,0.00,meteobridge,2013-09-17 17:00:00,
2013-09-17 12:05:00,65.7,52.3,30.08,SE,135,21.3,21.3,62,0.00,,,0.00,meteobridge,2013-09-17 17:05:00,
2013-09-17 12:11:00,65.5,52.5,30.08,SE,135,18.3,20.6,63,0.00,,,0.00,meteobridge,2013-09-17 17:11:00,
2013-09-17 12:17:00,66.0,53.1,30.08,South,180,19.7,19.7,63,0.00,,,0.00,meteobridge,2013-09-17 17:17:00,
2013-09-17 12:22:00,66.9,53.1,30.07,SSE,158,18.3,19.0,61,0.00,,,0.00,meteobridge,2013-09-17 17:22:00,
2013-09-17 12:28:00,66.7,52.9,30.07,SE,135,19.0,19.0,61,0.00,,,0.00,meteobridge,2013-09-17 17:28:00,
2013-09-17 12:33:00,66.9,54.0,30.07,SE,135,22.8,22.8,63,0.00,,,0.00,meteobridge,2013-09-17 17:33:00,
2013-09-17 12:39:00,66.0,53.1,30.07,South,180,23.5,26.6,63,0.00,,,0.00,meteobridge,2013-09-17 17:39:00,
2013-09-17 12:45:00,66.0,53.4,30.07,SE,135,15.9,19.7,64,0.00,,,0.00,meteobridge,2013-09-17 17:45:00,
2013-09-17 12:50:00,66.4,53.4,30.07,South,180,15.9,20.6,63,0.00,,,0.00,meteobridge,2013-09-17 17:50:00,
2013-09-17 12:56:00,66.2,53.6,30.07,SE,135,19.7,19.7,64,0.00,,,0.00,meteobridge,2013-09-17 17:56:00,
2013-09-17 13:02:00,65.8,53.8,30.07,South,180,25.1,25.1,65,0.00,,,0.00,meteobridge,2013-09-17 18:02:00,
2013-09-17 13:07:00,65.7,53.6,30.06,South,180,14.5,15.9,65,0.00,,,0.00,meteobridge,2013-09-17 18:07:00,
2013-09-17 13:12:00,66.0,54.0,30.06,South,180,16.8,18.3,65,0.00,,,0.00,meteobridge,2013-09-17 18:12:00,
2013-09-17 13:18:00,66.0,54.0,30.06,South,180,17.4,17.4,65,0.00,,,0.00,meteobridge,2013-09-17 18:18:00,
2013-09-17 13:24:00,66.0,54.3,30.06,SE,135,15.2,19.0,66,0.00,,,0.00,meteobridge,2013-09-17 18:24:00,
2013-09-17 13:29:00,67.3,54.7,30.06,SE,135,19.7,19.7,64,0.00,,,0.00,meteobridge,2013-09-17 18:29:00,
2013-09-17 13:35:00,66.7,54.1,30.05,SSE,158,22.1,22.1,64,0.00,,,0.00,meteobridge,2013-09-17 18:35:00,
2013-09-17 13:41:00,66.7,54.1,30.05,SE,135,21.3,22.8,64,0.00,,,0.00,meteobridge,2013-09-17 18:41:00,
2013-09-17 13:46:00,66.7,54.1,30.05,SE,135,21.3,21.3,64,0.00,,,0.00,meteobridge,2013-09-17 18:46:00,
2013-09-17 13:52:00,66.6,54.0,30.05,SSE,158,19.0,22.1,64,0.00,,,0.00,meteobridge,2013-09-17 18:52:00,
2013-09-17 13:58:00,66.0,54.0,30.04,SE,135,15.2,18.3,65,0.00,,,0.00,meteobridge,2013-09-17 18:58:00,
2013-09-17 14:03:00,66.0,54.0,30.04,South,180,21.3,21.3,65,0.00,,,0.00,meteobridge,2013-09-17 19:03:00,
2013-09-17 14:09:00,66.0,54.3,30.04,South,180,15.2,16.8,66,0.00,,,0.00,meteobridge,2013-09-17 19:09:00,
2013-09-17 14:14:00,66.0,54.3,30.04,South,180,23.5,23.5,66,0.00,,,0.00,meteobridge,2013-09-17 19:14:00,
2013-09-17 14:20:00,66.0,54.3,30.03,SSE,158,22.1,22.1,66,0.00,,,0.00,meteobridge,2013-09-17 19:20:00,
2013-09-17 14:26:00,66.0,54.3,30.03,SSE,158,19.0,26.6,66,0.00,,,0.00,meteobridge,2013-09-17 19:26:00,
2013-09-17 14:31:00,66.4,54.3,30.03,SSE,158,17.4,19.0,65,0.00,,,0.00,meteobridge,2013-09-17 19:31:00,
2013-09-17 14:37:00,66.4,53.8,30.02,South,180,19.0,19.0,64,0.00,,,0.00,meteobridge,2013-09-17 19:37:00,
2013-09-17 14:43:00,66.4,53.8,30.02,SE,135,22.1,22.1,64,0.00,,,0.00,meteobridge,2013-09-17 19:43:00,
2013-09-17 14:48:00,65.8,54.1,30.02,SE,135,19.0,23.5,66,0.00,,,0.00,meteobridge,2013-09-17 19:48:00,
2013-09-17 14:54:00,65.8,54.1,30.02,South,180,19.7,19.7,66,0.00,,,0.00,meteobridge,2013-09-17 19:54:00,
2013-09-17 15:00:00,66.2,54.1,30.02,SSW,203,22.8,22.8,65,0.00,,,0.00,meteobridge,2013-09-17 20:00:00,
2013-09-17 15:05:00,65.8,54.1,30.01,SSE,158,17.4,19.7,66,0.00,,,0.00,meteobridge,2013-09-17 20:05:00,
2013-09-17 15:11:00,65.8,54.1,30.01,South,180,18.3,18.3,66,0.00,,,0.00,meteobridge,2013-09-17 20:11:00,
2013-09-17 15:16:00,65.8,54.1,30.01,South,180,16.8,16.8,66,0.00,,,0.00,meteobridge,2013-09-17 20:16:00,
2013-09-17 15:22:00,65.5,53.8,30.01,South,180,20.6,21.3,66,0.00,,,0.00,meteobridge,2013-09-17 20:22:00,
2013-09-17 15:28:00,65.7,54.0,30.00,SE,135,13.0,15.2,66,0.00,,,0.00,meteobridge,2013-09-17 20:28:00,
2013-09-17 15:33:00,65.5,54.3,30.00,SE,135,19.0,19.0,67,0.00,,,0.00,meteobridge,2013-09-17 20:33:00,
2013-09-17 15:39:00,65.1,53.4,30.00,SSE,158,16.8,24.4,66,0.00,,,0.00,meteobridge,2013-09-17 20:39:00,
2013-09-17 15:45:00,65.1,53.4,30.00,SSE,158,13.6,20.6,66,0.00,,,0.00,meteobridge,2013-09-17 20:45:00,
2013-09-17 15:50:00,65.1,54.0,29.99,SE,135,13.6,16.8,67,0.00,,,0.00,meteobridge,2013-09-17 20:50:00,
2013-09-17 15:56:00,65.3,53.6,29.99,South,180,21.3,21.3,66,0.00,,,0.00,meteobridge,2013-09-17 20:56:00,
2013-09-17 16:02:00,65.3,53.6,29.99,SE,135,17.4,17.4,66,0.00,,,0.00,meteobridge,2013-09-17 21:02:00,
2013-09-17 16:07:00,65.3,53.6,29.99,SE,135,15.9,15.9,66,0.00,,,0.00,meteobridge,2013-09-17 21:07:00,
2013-09-17 16:13:00,65.1,53.4,29.99,South,180,19.7,19.7,66,0.00,,,0.00,meteobridge,2013-09-17 21:13:00,
2013-09-17 16:19:00,64.8,52.7,29.99,SE,135,25.1,25.1,65,0.00,,,0.00,meteobridge,2013-09-17 21:19:00,
2013-09-17 16:24:00,64.8,53.1,29.98,SE,135,23.5,23.5,66,0.00,,,0.00,meteobridge,2013-09-17 21:24:00,
2013-09-17 16:30:00,64.6,52.5,29.98,South,180,19.7,21.3,65,0.00,,,0.00,meteobridge,2013-09-17 21:30:00,
2013-09-17 16:35:00,64.6,52.5,29.98,South,180,15.2,19.7,65,0.00,,,0.00,meteobridge,2013-09-17 21:35:00,
2013-09-17 16:41:00,64.2,51.8,29.98,SSE,158,15.2,21.3,64,0.00,,,0.00,meteobridge,2013-09-17 21:41:00,
2013-09-17 16:47:00,64.2,52.7,29.98,SE,135,14.5,14.5,66,0.00,,,0.00,meteobridge,2013-09-17 21:47:00,
2013-09-17 16:52:00,64.2,52.2,29.98,SE,135,15.2,22.1,65,0.00,,,0.00,meteobridge,2013-09-17 21:52:00,
2013-09-17 16:58:00,64.0,52.0,29.98,SE,135,15.2,22.8,65,0.00,,,0.00,meteobridge,2013-09-17 21:58:00,
2013-09-17 17:04:00,64.0,52.0,29.97,SSE,158,15.9,16.8,65,0.00,,,0.00,meteobridge,2013-09-17 22:04:00,
2013-09-17 17:09:00,64.0,52.0,29.98,South,180,21.3,22.1,65,0.00,,,0.00,meteobridge,2013-09-17 22:09:00,
2013-09-17 17:15:00,63.9,52.3,29.98,SSE,158,19.7,21.3,66,0.00,,,0.00,meteobridge,2013-09-17 22:15:00,
2013-09-17 17:21:00,63.7,52.5,29.97,South,180,15.2,19.0,67,0.00,,,0.00,meteobridge,2013-09-17 22:21:00,
2013-09-17 17:26:00,63.5,52.7,29.97,SE,135,17.4,19.0,68,0.00,,,0.00,meteobridge,2013-09-17 22:26:00,
2013-09-17 17:32:00,63.1,52.9,29.97,South,180,17.4,17.4,69,0.00,,,0.00,meteobridge,2013-09-17 22:32:00,
2013-09-17 17:37:00,62.6,53.1,29.97,East,90,13.0,18.3,71,0.00,,,0.00,meteobridge,2013-09-17 22:37:00,
2013-09-17 17:43:00,61.7,53.2,29.97,SE,135,15.9,18.3,74,0.00,,,0.00,meteobridge,2013-09-17 22:43:00,
2013-09-17 17:49:00,61.3,53.4,29.97,SE,135,15.9,19.7,75,0.00,,,0.00,meteobridge,2013-09-17 22:49:00,
2013-09-17 17:54:00,61.2,54.0,29.97,SSW,203,13.0,22.1,77,0.00,,,0.00,meteobridge,2013-09-17 22:54:00,
2013-09-17 18:00:00,60.8,53.6,29.97,South,180,16.8,16.8,77,0.00,,,0.00,meteobridge,2013-09-17 23:00:00,
2013-09-17 18:06:00,60.8,53.6,29.97,South,180,13.0,16.8,77,0.00,,,0.00,meteobridge,2013-09-17 23:06:00,
2013-09-17 18:11:00,60.8,53.6,29.97,SSE,158,16.8,16.8,77,0.00,,,0.00,meteobridge,2013-09-17 23:11:00,
2013-09-17 18:17:00,60.4,53.6,29.97,SE,135,11.4,19.0,78,0.00,,,0.00,meteobridge,2013-09-17 23:17:00,
2013-09-17 18:23:00,60.3,53.8,29.97,SE,135,20.6,20.6,79,0.00,,,0.00,meteobridge,2013-09-17 23:23:00,
2013-09-17 18:28:00,60.1,54.3,29.97,SSE,158,8.3,11.4,81,0.00,,,0.00,meteobridge,2013-09-17 23:28:00,
2013-09-17 18:34:00,59.7,54.1,29.97,SE,135,8.3,14.5,82,0.00,,,0.00,meteobridge,2013-09-17 23:34:00,
2013-09-17 18:39:00,59.5,54.3,29.97,SE,135,13.0,14.5,83,0.00,,,0.00,meteobridge,2013-09-17 23:39:00,
2013-09-17 18:45:00,59.0,54.1,29.96,South,180,9.8,11.4,84,0.00,,,0.00,meteobridge,2013-09-17 23:45:00,
2013-09-17 18:51:00,58.5,54.3,29.96,SE,135,10.7,14.5,86,0.00,,,0.00,meteobridge,2013-09-17 23:51:00,
2013-09-17 18:56:00,58.3,54.5,29.96,SSE,158,19.0,19.0,87,0.00,,,0.00,meteobridge,2013-09-17 23:56:00,
2013-09-17 19:02:00,58.1,54.5,29.96,SE,135,11.4,11.4,88,0.00,,,0.00,meteobridge,2013-09-18 00:02:00,
2013-09-17 19:08:00,57.9,55.0,29.96,SE,135,9.2,11.4,90,0.00,,,0.00,meteobridge,2013-09-18 00:08:00,
2013-09-17 19:13:00,57.7,55.2,29.96,SE,135,12.1,12.1,91,0.00,,,0.00,meteobridge,2013-09-18 00:13:00,
2013-09-17 19:19:00,57.7,55.4,29.95,SE,135,9.8,9.8,92,0.00,,,0.00,meteobridge,2013-09-18 00:19:00,
2013-09-17 19:25:00,57.7,55.8,29.96,SE,135,9.2,9.2,93,0.00,,,0.00,meteobridge,2013-09-18 00:25:00,
2013-09-17 19:30:00,57.7,55.8,29.95,SE,135,6.9,6.9,93,0.00,,,0.00,meteobridge,2013-09-18 00:30:00,
2013-09-17 19:36:00,57.7,55.9,29.95,SE,135,13.6,13.6,94,0.00,,,0.00,meteobridge,2013-09-18 00:36:00,
2013-09-17 19:42:00,57.9,56.1,29.95,South,180,13.0,13.0,94,0.00,,,0.00,meteobridge,2013-09-18 00:42:00,
2013-09-17 19:47:00,57.9,56.1,29.95,SE,135,13.0,13.0,94,0.00,,,0.00,meteobridge,2013-09-18 00:47:00,
2013-09-17 19:53:00,57.9,55.9,29.95,SE,135,9.2,13.0,93,0.00,,,0.00,meteobridge,2013-09-18 00:53:00,
2013-09-17 19:58:00,57.9,56.1,29.95,South,180,13.0,13.0,94,0.00,,,0.00,meteobridge,2013-09-18 00:58:00,
2013-09-17 20:04:00,57.9,56.1,29.95,SE,135,13.6,13.6,94,0.00,,,0.00,meteobridge,2013-09-18 01:04:00,
2013-09-17 20:10:00,57.9,56.1,29.95,SE,135,13.6,13.6,94,0.00,,,0.00,meteobridge,2013-09-18 01:10:00,
2013-09-17 20:15:00,58.1,56.3,29.95,SE,135,12.1,12.1,94,0.00,,,0.00,meteobridge,2013-09-18 01:15:00,
2013-09-17 20:21:00,58.3,56.5,29.95,SE,135,7.6,9.8,94,0.00,,,0.00,meteobridge,2013-09-18 01:21:00,
2013-09-17 20:27:00,58.3,56.3,29.95,SE,135,9.2,9.8,93,0.00,,,0.00,meteobridge,2013-09-18 01:27:00,
2013-09-17 20:32:00,58.3,56.3,29.95,SE,135,7.6,9.8,93,0.00,,,0.00,meteobridge,2013-09-18 01:32:00,
2013-09-17 20:38:00,58.3,56.3,29.95,SSE,158,8.3,14.5,93,0.00,,,0.00,meteobridge,2013-09-18 01:38:00,
2013-09-17 20:44:00,58.3,56.3,29.95,SE,135,9.8,11.4,93,0.00,,,0.00,meteobridge,2013-09-18 01:44:00,
2013-09-17 20:49:00,58.3,56.5,29.95,SE,135,13.6,13.6,94,0.00,,,0.00,meteobridge,2013-09-18 01:49:00,
2013-09-17 20:55:00,58.3,56.5,29.94,South,180,9.8,9.8,94,0.00,,,0.00,meteobridge,2013-09-18 01:55:00,
2013-09-17 21:00:00,58.3,56.5,29.94,South,180,9.2,12.1,94,0.00,,,0.00,meteobridge,2013-09-18 02:00:00,
2013-09-17 21:06:00,58.3,56.8,29.94,SSE,158,11.4,13.0,95,0.00,,,0.00,meteobridge,2013-09-18 02:06:00,
2013-09-17 21:12:00,58.1,56.7,29.94,SSE,158,10.7,11.4,95,0.00,,,0.00,meteobridge,2013-09-18 02:12:00,
2013-09-17 21:17:00,58.1,56.7,29.94,SE,135,13.6,13.6,95,0.00,,,0.00,meteobridge,2013-09-18 02:17:00,
2013-09-17 21:23:00,58.1,57.0,29.94,SSE,158,8.3,9.8,96,0.00,,,0.00,meteobridge,2013-09-18 02:23:00,
2013-09-17 21:29:00,58.1,57.0,29.94,South,180,10.7,10.7,96,0.00,,,0.00,meteobridge,2013-09-18 02:29:00,
2013-09-17 21:34:00,58.1,57.0,29.93,South,180,7.6,9.8,96,0.00,,,0.00,meteobridge,2013-09-18 02:34:00,
2013-09-17 21:40:00,58.1,57.2,29.94,SE,135,10.7,11.4,97,0.00,,,0.00,meteobridge,2013-09-18 02:40:00,
2013-09-17 21:46:00,58.1,57.2,29.93,SE,135,11.4,11.4,97,0.00,,,0.00,meteobridge,2013-09-18 02:46:00,
2013-09-17 21:51:00,58.1,57.2,29.93,SE,135,10.7,10.7,97,0.00,,,0.00,meteobridge,2013-09-18 02:51:00,
2013-09-17 21:57:00,57.9,57.4,29.93,South,180,7.6,7.6,98,0.00,,,0.00,meteobridge,2013-09-18 02:57:00,
2013-09-17 22:02:00,57.9,57.4,29.93,SE,135,6.0,9.2,98,0.00,,,0.00,meteobridge,2013-09-18 03:02:00,
2013-09-17 22:08:00,57.9,57.4,29.92,SSE,158,7.6,11.4,98,0.00,,,0.00,meteobridge,2013-09-18 03:08:00,
2013-09-17 22:14:00,57.9,57.4,29.92,SE,135,9.8,11.4,98,0.00,,,0.00,meteobridge,2013-09-18 03:14:00,
2013-09-17 22:19:00,57.9,57.6,29.93,South,180,7.6,7.6,99,0.00,,,0.00,meteobridge,2013-09-18 03:19:00,
2013-09-17 22:25:00,57.9,57.6,29.93,SSE,158,11.4,11.4,99,0.00,,,0.00,meteobridge,2013-09-18 03:25:00,
2013-09-17 22:31:00,58.1,57.7,29.93,SE,135,8.3,9.2,99,0.00,,,0.00,meteobridge,2013-09-18 03:31:00,
2013-09-17 22:36:00,58.1,57.7,29.93,SE,135,6.0,9.8,99,0.00,,,0.00,meteobridge,2013-09-18 03:36:00,
2013-09-17 22:42:00,58.1,57.7,29.92,SE,135,6.0,8.3,99,0.00,,,0.00,meteobridge,2013-09-18 03:42:00,
2013-09-17 22:48:00,58.1,57.7,29.92,SE,135,9.2,9.8,99,0.00,,,0.00,meteobridge,2013-09-18 03:48:00,
2013-09-17 22:53:00,58.1,57.7,29.92,SE,135,7.6,8.3,99,0.00,,,0.00,meteobridge,2013-09-18 03:53:00,
2013-09-17 22:59:00,58.3,57.9,29.92,SE,135,6.0,6.9,99,0.00,,,0.00,meteobridge,2013-09-18 03:59:00,
2013-09-17 23:01:00,58.3,57.9,29.92,SE,135,9.8,9.8,99,0.00,,,0.00,meteobridge,2013-09-18 04:01:00,
2013-09-17 23:02:00,58.3,57.9,29.92,South,180,7.6,9.8,99,0.00,,,0.00,meteobridge,2013-09-18 04:02:00,
2013-09-17 23:04:00,58.3,57.9,29.92,SE,135,8.3,8.3,99,0.00,,,0.00,meteobridge,2013-09-18 04:04:00,
2013-09-17 23:06:00,58.3,57.9,29.92,SE,135,6.9,8.3,99,0.00,,,0.00,meteobridge,2013-09-18 04:06:00,
2013-09-17 23:08:00,58.3,57.9,29.92,South,180,7.6,8.3,99,0.00,,,0.00,meteobridge,2013-09-18 04:08:00,
2013-09-17 23:14:00,58.5,58.1,29.92,SE,135,6.0,9.2,99,0.00,,,0.00,meteobridge,2013-09-18 04:14:00,
2013-09-17 23:19:00,58.5,58.1,29.91,SE,135,6.9,6.9,99,0.00,,,0.00,meteobridge,2013-09-18 04:19:00,
2013-09-17 23:25:00,58.6,58.3,29.91,SE,135,8.3,9.8,99,0.00,,,0.00,meteobridge,2013-09-18 04:25:00,
2013-09-17 23:31:00,58.6,58.3,29.91,SE,135,6.0,6.0,99,0.00,,,0.00,meteobridge,2013-09-18 04:31:00,
2013-09-17 23:36:00,58.8,58.5,29.91,South,180,5.4,6.0,99,0.00,,,0.00,meteobridge,2013-09-18 04:36:00,
2013-09-17 23:42:00,58.8,58.5,29.91,SE,135,7.6,7.6,99,0.00,,,0.00,meteobridge,2013-09-18 04:42:00,
2013-09-17 23:48:00,58.8,58.5,29.91,SE,135,5.4,6.9,99,0.00,,,0.00,meteobridge,2013-09-18 04:48:00,
2013-09-17 23:53:00,59.0,58.5,29.91,SSE,158,9.2,9.2,98,0.00,,,0.00,meteobridge,2013-09-18 04:53:00,
2013-09-17 23:59:00,59.0,58.5,29.91,SE,135,7.6,7.6,98,0.00,,,0.00,meteobridge,2013-09-18 04:59:00,